Weather History for Amsterdam, Netherlands

Change the Weather History Date:

Sunday, December 23, 2012

  Actual Average Record
Temperature  
Mean Temperature 48 °F -  
Max Temperature 53 °F 41 °F 54 °F (2014)
Min Temperature 44 °F 33 °F 23 °F (2000)
Degree Days  
Heating Degree Days 16    
Moisture  
Dew Point 50 °F    
Average Humidity 92    
Maximum Humidity 100    
Minimum Humidity 82    
Precipitation  
Precipitation 0.04 in - - ()
Sea Level Pressure  
Sea Level Pressure 29.60 in    
Wind  
Wind Speed 20 mph ()    
Max Wind Speed 31 mph    
Max Gust Speed 40 mph    
Visibility 5.7 miles    
Events Rain    
Averages and records for this station are not official NWS values.
T = Trace of Precipitation, MM = Missing Value Source: Averaged Metar Reports

Daily Weather History Graph

Daily Weather History Graph

Search for Another Location

Airport:

Trip Planner

Search our weather history database for the weather conditions in past years. The results will help you decide how hot, cold, wet, or windy it might be!

Date:

Astronomy

Dec. 23, 2012 Rise Set
Actual Time 8:49 AM CET 4:30 PM CET
Civil Twilight 8:08 AM CET 5:12 PM CET
Nautical Twilight 7:23 AM CET 5:56 PM CET
Astronomical Twilight 6:42 AM CET 6:38 PM CET
Moon 1:29 PM CET (12/23) 3:57 AM CET (12/23)
Length of Visible Light 9h 04m
Length of Day
7h 41m
Waxing Gibbous, 79% of the Moon is Illuminated
Dec 23
Waxing Gibbous
Dec 28
Full
Jan 5
Last Quarter
Jan 11
New
Jan 19
First Quarter

Hourly Weather History & Observations

Time (CET) Temp. Dew Point Humidity Pressure Visibility Wind Dir Wind Speed Gust Speed Precip Events Conditions
12:25 AM 50.0 °F 48.2 °F 94% 29.53 in 2.5 mi SSW 9.2 mph - N/A Rain Rain
12:55 AM 51.8 °F 50.0 °F 94% 29.53 in - WSW 20.7 mph - N/A Rain Rain
1:00 AM 51 °F 51 °F 99% 29.55 in 2 mi WSW 22.4 mph - - Rain Heavy Drizzle
1:25 AM 51.8 °F 51.8 °F 100% 29.53 in 3.1 mi WSW 21.9 mph 33.4 mph N/A Rain Rain
1:55 AM 51.8 °F 51.8 °F 100% 29.53 in 1.7 mi WSW 20.7 mph - N/A Rain Rain
2:25 AM 51.8 °F 51.8 °F 100% 29.53 in 1.7 mi WSW 24.2 mph 40.3 mph N/A Rain Drizzle
2:55 AM 51.8 °F 51.8 °F 100% 29.53 in - WSW 24.2 mph - N/A   Light Drizzle
3:25 AM 51.8 °F 51.8 °F 100% 29.53 in 2.2 mi WSW 24.2 mph - N/A Rain Light Drizzle
3:55 AM 51.8 °F 51.8 °F 100% 29.53 in 6.2 mi WSW 23.0 mph - N/A Rain Light Rain
4:00 AM 52 °F 51 °F 95% 29.54 in 6 mi WSW 24.6 mph - - Rain Drizzle
4:25 AM 51.8 °F 51.8 °F 100% 29.53 in 3.7 mi WSW 21.9 mph - N/A Rain Rain
4:55 AM 51.8 °F 51.8 °F 100% 29.50 in 6.2 mi WSW 23.0 mph - N/A Rain Rain
5:25 AM 51.8 °F 51.8 °F 100% 29.50 in 3.7 mi WSW 24.2 mph - N/A Rain Rain
5:55 AM 51.8 °F 51.8 °F 100% 29.50 in 5.6 mi WSW 27.6 mph - N/A Rain Rain
6:25 AM 53.6 °F 51.8 °F 94% 29.50 in 6.2 mi WSW 27.6 mph - N/A   Mostly Cloudy
6:55 AM 53.6 °F 51.8 °F 94% 29.50 in 6.2 mi WSW 27.6 mph 40.3 mph N/A   Mostly Cloudy
7:00 AM 53 °F 51 °F 90% 29.54 in 7 mi WSW 29.1 mph - - Rain Drizzle
7:25 AM 53.6 °F 51.8 °F 94% 29.53 in 6.2 mi WSW 28.8 mph - N/A Rain Light Rain
7:55 AM 53.6 °F 51.8 °F 94% 29.53 in 5.0 mi WSW 29.9 mph - N/A Rain Light Rain
8:25 AM 51.8 °F 51.8 °F 100% 29.53 in 5.0 mi WSW 27.6 mph - N/A Rain Light Rain
8:55 AM 53.6 °F 51.8 °F 94% 29.53 in 5.0 mi WSW 27.6 mph - N/A Rain Light Rain
9:25 AM 51.8 °F 51.8 °F 100% 29.56 in - WSW 27.6 mph - N/A Rain Light Rain
9:55 AM 51.8 °F 51.8 °F 100% 29.56 in 6.2 mi WSW 31.1 mph - N/A   Overcast
10:00 AM 53 °F 51 °F 89% 29.58 in 8 mi WSW 29.1 mph - - Rain Drizzle
10:25 AM 53.6 °F 51.8 °F 94% 29.56 in 4.3 mi WSW 28.8 mph - N/A Rain Light Rain
10:55 AM 53.6 °F 51.8 °F 94% 29.56 in 6.2 mi WSW 27.6 mph - N/A   Mostly Cloudy
11:25 AM 53.6 °F 50.0 °F 88% 29.59 in 6.2 mi WSW 27.6 mph - N/A   Scattered Clouds
11:55 AM 53.6 °F 50.0 °F 88% 29.59 in 6.2 mi WSW 29.9 mph - N/A   Scattered Clouds
12:25 PM 51.8 °F 50.0 °F 94% 29.59 in 6.2 mi WSW 24.2 mph - N/A   Scattered Clouds
12:55 PM 53.6 °F 50.0 °F 88% 29.59 in 6.2 mi WSW 26.5 mph - N/A   Partly Cloudy
1:00 PM 53 °F 49 °F 83% 29.62 in 11 mi WSW 24.6 mph - -   Partly Cloudy
1:25 PM 53.6 °F 48.2 °F 82% 29.59 in 6.2 mi WSW 25.3 mph - N/A   Partly Cloudy
1:55 PM 53.6 °F 48.2 °F 82% 29.59 in 6.2 mi WSW 24.2 mph - N/A   Partly Cloudy
2:25 PM 53.6 °F 48.2 °F 82% 29.62 in 6.2 mi WSW 23.0 mph - N/A   Partly Cloudy
2:55 PM 53.6 °F 48.2 °F 82% 29.62 in 6.2 mi WSW 25.3 mph 36.8 mph N/A   Partly Cloudy
3:25 PM 51.8 °F 48.2 °F 88% 29.62 in 6.2 mi WSW 23.0 mph - N/A   Partly Cloudy
3:55 PM 51.8 °F 48.2 °F 88% 29.65 in 6.2 mi WSW 19.6 mph - N/A   Partly Cloudy
4:00 PM 51 °F 47 °F 83% 29.65 in 7 mi WSW 20.1 mph - -   Overcast
4:25 PM 51.8 °F 48.2 °F 88% 29.65 in 6.2 mi WSW 19.6 mph - N/A   Partly Cloudy
4:55 PM 51.8 °F 48.2 °F 88% 29.65 in 6.2 mi WSW 18.4 mph - N/A   Partly Cloudy
5:25 PM 51.8 °F 46.4 °F 82% 29.65 in 6.2 mi WSW 20.7 mph - N/A   Partly Cloudy
5:55 PM 51.8 °F 46.4 °F 82% 29.65 in 6.2 mi WSW 19.6 mph 31.1 mph N/A   Partly Cloudy
6:25 PM 50.0 °F 48.2 °F 94% 29.68 in 6.2 mi WSW 17.3 mph - N/A   Partly Cloudy
6:55 PM 50.0 °F 46.4 °F 87% 29.68 in 6.2 mi WSW 17.3 mph - N/A   Partly Cloudy
7:00 PM 50 °F 47 °F 85% 29.69 in 7 mi WSW 15.7 mph - -   Partly Cloudy
7:25 PM 50.0 °F 46.4 °F 87% 29.68 in 6.2 mi WSW 17.3 mph - N/A   Partly Cloudy
7:55 PM 50.0 °F 46.4 °F 87% 29.68 in - WSW 16.1 mph - N/A   Clear
8:25 PM 50.0 °F 46.4 °F 87% 29.68 in 6.2 mi WSW 17.3 mph - N/A   Partly Cloudy
8:55 PM 50.0 °F 46.4 °F 87% 29.68 in 6.2 mi WSW 17.3 mph - N/A   Partly Cloudy
9:25 PM 50.0 °F 48.2 °F 94% 29.71 in 6.2 mi WSW 17.3 mph - N/A   Partly Cloudy
9:55 PM 50.0 °F 48.2 °F 94% 29.71 in 6.2 mi WSW 16.1 mph - N/A   Partly Cloudy
10:00 PM 50 °F 47 °F 87% 29.72 in 5 mi WSW 15.7 mph - -   Mist
10:25 PM 50.0 °F 46.4 °F 87% 29.71 in 6.2 mi WSW 16.1 mph - N/A   Partly Cloudy
10:55 PM 50.0 °F 46.4 °F 87% 29.71 in 6.2 mi WSW 15.0 mph - N/A   Partly Cloudy
11:25 PM 50.0 °F 48.2 °F 94% 29.71 in 6.2 mi WSW 16.1 mph - N/A   Mostly Cloudy
11:55 PM 50.0 °F 48.2 °F 94% 29.74 in 6.2 mi WSW 13.8 mph - N/A   Scattered Clouds